Newark, NJ

9:44 AM EDT on October 18, 2019 (GMT -0400)
Newark International

Weather History for KEWR - May, 2019

Change the Weather History Date:

Thursday, May 23, 2019

  Actual Average Record
Temperature  
Mean Temperature 65 °F 65 °F  
Max Temperature 75 °F 74 °F 96 °F (1964)
Min Temperature 55 °F 55 °F 43 °F (1931)
Degree Days  
Heating Degree Days 0 3  
Month to date heating degree days 104 117  
Since 1 July heating degree days 4698 4837  
Cooling Degree Days 0 3  
Month to date cooling degree days 32 35  
Year to date cooling degree days 47 47  
Growing Degree Days 15 (Base 50)    
Moisture  
Dew Point 56 °F    
Average Humidity 75    
Maximum Humidity 93    
Minimum Humidity 48    
Precipitation  
Precipitation 0.51 in 0.15 in 3.92 in (1979)
Month to date precipitation 5.24 2.96  
Year to date precipitation 20.89 17.76  
Snow  
Snow 0.00 in 0.00 in 0.00 in (2002)
Month to date snowfall 0.0 0.0  
Since 1 July snowfall 22.0 28.5  
Snow Depth 0.00 in    
Sea Level Pressure  
Sea Level Pressure 30.07 in    
Wind  
Wind Speed 8 mph ()    
Max Wind Speed 23 mph    
Max Gust Speed 28 mph    
Visibility 8.1 miles    
Events Rain , Thunderstorm    
T = Trace of Precipitation, MM = Missing Value Source: Averaged Metar Reports

Daily Weather History Graph

Daily Weather History Graph

Search for Another Location

Airport or City:

Astronomy

May. 23, 2019 Rise Set
Actual Time 5:33 AM EDT 8:14 PM EDT
Civil Twilight 5:01 AM EDT 8:46 PM EDT
Nautical Twilight 4:21 AM EDT 9:26 PM EDT
Astronomical Twilight 3:36 AM EDT 10:11 PM EDT
Moon No Moon Rise 9:34 AM EDT (5/23)
Length of Visible Light 15h 44m
Length of Day
14h 40m
Waning Gibbous, 77% of the Moon is Illuminated
May 23
Waning Gibbous
May 26
Last Quarter
Jun 3
New
Jun 10
First Quarter
Jun 17
Full

Hourly Weather History & Observations

Time (EDT) Temp. Dew Point Humidity Pressure Visibility Wind Dir Wind Speed Gust Speed Precip Events Conditions
12:51 AM 64.9 °F 45.0 °F 48% 30.20 in 10.0 mi SSW 10.4 mph - N/A   Overcast
1:51 AM 64.0 °F 44.1 °F 48% 30.20 in 10.0 mi SW 10.4 mph - N/A   Mostly Cloudy
2:51 AM 63.0 °F 45.0 °F 52% 30.17 in 10.0 mi SSW 9.2 mph - N/A   Mostly Cloudy
3:51 AM 63.0 °F 46.9 °F 56% 30.17 in 10.0 mi SSW 8.1 mph - N/A   Overcast
5:51 AM 61.0 °F 51.1 °F 70% 30.21 in 10.0 mi South 4.6 mph - 0.02 in Rain Light Rain
6:49 AM 57.2 °F 53.6 °F 88% 30.23 in 2.5 mi South 6.9 mph - 0.09 in Rain , Thunderstorm Rain
6:51 AM 57.9 °F 53.1 °F 84% 30.23 in 2.5 mi South 6.9 mph - 0.09 in Rain , Thunderstorm Rain
7:01 AM 57.0 °F 54.0 °F 89% 30.24 in 3.0 mi SSW 5.8 mph - 0.09 in Rain Light Rain
7:26 AM 57.0 °F 54.0 °F 89% 30.20 in 3.0 mi South 10.4 mph - 0.18 in Rain , Thunderstorm Rain
7:41 AM 57.0 °F 53.1 °F 87% 30.19 in 4.0 mi SSW 12.7 mph - 0.26 in Rain Rain
7:51 AM 55.9 °F 53.1 °F 90% 30.19 in 5.0 mi South 9.2 mph - 0.29 in Rain Rain
8:51 AM 57.9 °F 54.0 °F 87% 30.20 in 10.0 mi South 5.8 mph - 0.05 in Rain Light Rain
9:51 AM 61.0 °F 51.1 °F 70% 30.19 in 10.0 mi South 11.5 mph - 0.00 in   Mostly Cloudy
10:51 AM 62.1 °F 50.0 °F 65% 30.16 in 10.0 mi South 12.7 mph - 0.00 in   Overcast
11:51 AM 63.0 °F 52.0 °F 67% 30.13 in 9.0 mi South 11.5 mph - 0.00 in Rain Light Rain
12:51 PM 66.9 °F 55.0 °F 66% 30.10 in 10.0 mi South 9.2 mph - 0.00 in   Overcast
1:51 PM 72.0 °F 55.9 °F 57% 30.05 in 10.0 mi SW 10.4 mph 23.0 mph N/A   Mostly Cloudy
2:51 PM 73.9 °F 57.9 °F 57% 30.01 in 10.0 mi SSW 17.3 mph - N/A   Mostly Cloudy
3:51 PM 72.0 °F 57.9 °F 61% 30.01 in 7.0 mi WSW 11.5 mph 19.6 mph 0.00 in Rain , Thunderstorm Light Thunderstorms and Rain
4:03 PM 70.0 °F 60.1 °F 71% 30.00 in 2.0 mi WNW 8.1 mph 27.6 mph 0.01 in Rain , Thunderstorm Thunderstorms and Rain
4:17 PM 69.1 °F 61.0 °F 75% 29.99 in 6.0 mi SW 11.5 mph - 0.05 in Rain , Thunderstorm Light Thunderstorms and Rain
4:37 PM 70.0 °F 63.0 °F 78% 29.99 in 10.0 mi WSW 9.2 mph - 0.06 in   Overcast
4:51 PM 69.1 °F 63.0 °F 81% 29.97 in 10.0 mi SSW 4.6 mph - 0.06 in   Overcast
5:51 PM 69.1 °F 62.1 °F 78% 29.93 in 10.0 mi South 8.1 mph - N/A   Mostly Cloudy
6:51 PM 68.0 °F 62.1 °F 81% 29.92 in 10.0 mi South 9.2 mph - N/A   Mostly Cloudy
7:51 PM 68.0 °F 63.0 °F 84% 29.89 in 10.0 mi SSE 6.9 mph - N/A   Mostly Cloudy
8:51 PM 66.9 °F 64.0 °F 90% 29.87 in 10.0 mi South 6.9 mph - N/A   Mostly Cloudy
9:51 PM 66.9 °F 64.0 °F 90% 29.86 in 10.0 mi SSW 6.9 mph - N/A   Mostly Cloudy
10:51 PM 69.1 °F 66.0 °F 90% 29.85 in 10.0 mi WSW 10.4 mph - N/A   Mostly Cloudy
11:51 PM 69.1 °F 66.0 °F 90% 29.81 in 10.0 mi SW 13.8 mph - 0.00 in   Scattered Clouds